TimeCST,TemperatureF,Dew PointF,Humidity,Sea Level PressureIn,VisibilityMPH,Wind Direction,Wind SpeedMPH,Gust SpeedMPH,PrecipitationIn,Events,Conditions,WindDirDegrees,DateUTC
1:55 AM,21.9,12.0,66,30.06,10.0,East,13.8,25.3,N/A,,Overcast,80,2013-02-21 07:55:00
2:09 AM,21.2,12.2,68,30.02,10.0,East,16.1,-,N/A,,Overcast,90,2013-02-21 08:09:00
2:33 AM,21.2,10.4,63,30.00,10.0,East,13.8,-,N/A,,Overcast,80,2013-02-21 08:33:00
2:55 AM,21.9,10.0,60,30.06,10.0,East,15.0,-,N/A,,Overcast,90,2013-02-21 08:55:00
3:43 AM,21.2,12.2,68,29.95,2.5,East,16.1,24.2,0.00,Snow,Light Snow,80,2013-02-21 09:43:00
3:51 AM,21.2,12.2,68,29.96,4.0,East,16.1,23.0,0.00,Snow,Light Snow,90,2013-02-21 09:51:00
3:55 AM,21.0,12.9,71,30.01,6.0,East,17.3,25.3,0.00,Snow,Light Snow,90,2013-02-21 09:55:00
4:55 AM,21.9,12.0,66,30.01,4.0,East,12.7,21.9,0.00,Snow,Light Snow,80,2013-02-21 10:55:00
5:06 AM,21.2,12.2,68,29.94,2.0,East,16.1,25.3,0.00,Snow,Light Snow,90,2013-02-21 11:06:00
5:12 AM,21.2,12.2,68,29.94,1.8,East,15.0,25.3,0.00,Snow,Light Snow,80,2013-02-21 11:12:00
5:19 AM,21.2,12.2,68,29.94,1.2,East,15.0,23.0,0.00,Snow,Light Snow,90,2013-02-21 11:19:00
5:55 AM,19.9,16.0,85,30.00,0.8,East,12.7,-,0.00,Snow,Light Snow,80,2013-02-21 11:55:00
6:36 AM,19.4,15.8,86,29.91,1.0,ENE,12.7,23.0,0.03,Snow,Light Snow,60,2013-02-21 12:36:00
6:51 AM,19.4,15.8,86,29.93,0.8,ENE,13.8,-,0.04,Snow,Light Snow,70,2013-02-21 12:51:00
6:55 AM,19.0,16.0,88,29.99,0.8,ENE,11.5,-,0.04,Snow,Light Snow,70,2013-02-21 12:55:00
7:34 AM,19.4,15.8,86,29.91,0.2,ENE,12.7,-,0.02,Fog-Snow,Snow,60,2013-02-21 13:34:00
7:55 AM,19.0,16.0,88,29.97,0.2,ENE,17.3,21.9,0.03,Fog-Snow,Light Snow,70,2013-02-21 13:55:00
8:55 AM,19.0,16.0,88,29.96,0.2,ENE,12.7,-,0.05,Fog-Snow,Snow,60,2013-02-21 14:55:00
9:15 AM,19.4,15.8,86,29.89,0.2,ENE,15.0,21.9,0.01,Fog-Snow,Snow,60,2013-02-21 15:15:00
9:55 AM,19.0,16.0,88,29.94,0.2,NE,15.0,20.7,0.05,Fog-Snow,Snow,50,2013-02-21 15:55:00
10:55 AM,19.0,15.1,85,29.94,0.2,NE,12.7,-,0.12,Fog-Snow,Snow,50,2013-02-21 16:55:00
11:55 AM,19.0,16.0,88,29.92,0.5,NE,13.8,-,0.05,Fog-Snow,Light Snow,50,2013-02-21 17:55:00
11:58 AM,19.4,15.8,86,29.86,0.5,NE,12.7,-,0.00,Fog-Snow,Light Snow,50,2013-02-21 17:58:00
12:13 PM,19.4,15.8,86,29.84,0.5,NE,13.8,21.9,0.00,Fog-Snow,Light Snow,50,2013-02-21 18:13:00
12:47 PM,19.4,15.8,86,29.81,1.5,NE,19.6,-,0.01,,Overcast,50,2013-02-21 18:47:00
12:49 PM,19.4,15.8,86,29.81,2.0,NE,18.4,-,0.01,,Overcast,50,2013-02-21 18:49:00
12:55 PM,19.9,16.0,85,29.87,4.0,NE,13.8,25.3,0.01,,Overcast,50,2013-02-21 18:55:00
1:20 PM,19.4,15.8,86,29.80,2.5,NE,19.6,26.5,0.00,Snow,Light Snow,50,2013-02-21 19:20:00
1:23 PM,19.4,15.8,86,29.80,1.5,ENE,18.4,26.5,0.00,Snow,Light Snow,60,2013-02-21 19:23:00
1:27 PM,19.4,15.8,86,29.80,0.8,NE,17.3,26.5,0.00,Snow,Light Snow,50,2013-02-21 19:27:00
1:55 PM,19.9,16.0,85,29.86,0.5,ENE,16.1,21.9,0.02,Fog-Snow,Light Snow,60,2013-02-21 19:55:00
2:19 PM,19.4,17.6,93,29.79,0.2,ENE,15.0,21.9,0.01,Fog-Snow,Light Snow,60,2013-02-21 20:19:00
2:26 PM,19.4,17.6,93,29.79,0.2,ENE,16.1,23.0,0.01,Fog-Snow,Light Snow,60,2013-02-21 20:26:00
2:55 PM,21.0,16.0,81,29.83,0.2,ENE,17.3,-,0.02,Snow,Heavy Snow,60,2013-02-21 20:55:00
3:19 PM,21.2,15.8,80,29.77,1.0,ENE,16.1,-,0.02,Snow,Light Snow,60,2013-02-21 21:19:00
3:32 PM,21.2,15.8,80,29.77,0.5,NE,12.7,21.9,0.02,Snow,Snow,50,2013-02-21 21:32:00
3:55 PM,21.0,17.1,85,29.83,0.5,ENE,12.7,-,0.03,Fog-Snow,Light Snow,60,2013-02-21 21:55:00
4:10 PM,21.2,17.6,86,29.76,0.5,NE,12.7,-,0.00,Fog-Snow,Light Snow,50,2013-02-21 22:10:00
4:37 PM,21.2,17.6,86,29.76,0.2,NE,12.7,-,0.02,Fog-Snow,Heavy Snow,50,2013-02-21 22:37:00
4:55 PM,21.0,18.0,88,29.82,0.2,NE,9.2,-,0.04,Fog-Snow,Snow,50,2013-02-21 22:55:00
5:10 PM,21.2,17.6,86,29.77,0.2,NE,10.4,-,0.01,Fog-Snow,Light Snow,40,2013-02-21 23:10:00
5:28 PM,21.2,17.6,86,29.77,0.2,NNE,5.8,-,0.02,Fog-Snow,Snow,30,2013-02-21 23:28:00
5:52 PM,21.2,17.6,86,29.79,0.5,NNE,8.1,-,0.03,Fog-Snow,Snow,20,2013-02-21 23:52:00
5:55 PM,21.0,18.0,88,29.84,0.5,NNE,8.1,-,0.03,Fog-Snow,Light Snow,20,2013-02-21 23:55:00
6:38 PM,21.2,17.6,86,29.79,1.0,NNE,8.1,-,0.02,Snow,Light Snow,30,2013-02-22 00:38:00
6:55 PM,21.0,18.0,88,29.86,1.0,NNE,8.1,-,0.02,Snow,Light Snow,30,2013-02-22 00:55:00
7:03 PM,21.2,17.6,86,29.79,0.8,NNE,8.1,-,0.01,Snow,Light Snow,20,2013-02-22 01:03:00
7:07 PM,21.2,17.6,86,29.79,1.0,NNE,9.2,-,0.01,Snow,Light Snow,20,2013-02-22 01:07:00
7:32 PM,19.4,17.6,93,29.80,1.5,NNE,6.9,-,0.01,Snow,Light Snow,30,2013-02-22 01:32:00
7:40 PM,19.4,17.6,93,29.80,2.0,North,6.9,-,0.01,Snow,Light Snow,10,2013-02-22 01:40:00
7:51 PM,19.4,17.6,93,29.80,4.0,North,5.8,-,0.01,Snow,Light Snow,360,2013-02-22 01:51:00
7:55 PM,19.9,17.1,89,29.87,4.0,North,6.9,-,0.01,Snow,Light Snow,360,2013-02-22 01:55:00
8:55 PM,19.9,17.1,89,29.88,4.0,NNW,6.9,-,0.00,,Overcast,330,2013-02-22 02:55:00
9:51 PM,19.4,15.8,86,29.82,5.0,NNW,9.2,-,0.00,,Overcast,340,2013-02-22 03:51:00
9:55 PM,19.9,16.0,85,29.88,5.0,NNW,9.2,-,0.00,,Overcast,340,2013-02-22 03:55:00
10:55 PM,19.0,16.0,88,29.89,6.0,NNW,10.4,-,N/A,,Overcast,330,2013-02-22 04:55:00
11:51 PM,17.6,14.0,86,29.85,6.0,NW,10.4,-,N/A,,Mostly Cloudy,320,2013-02-22 05:51:00
11:55 PM,17.1,14.0,88,29.92,6.0,NW,11.5,-,N/A,,Scattered Clouds,320,2013-02-22 05:55:00